Weather History for Leadville, CO

Change the Weather History Date:

Thursday, October 27, 2011

  Actual Average Record
Temperature  
Mean Temperature 20 °F -  
Max Temperature 34 °F 45 °F 59 °F (1983)
Min Temperature 5 °F 20 °F 2 °F (2010)
Degree Days  
Heating Degree Days 45 33  
Month to date heating degree days 743 757  
Since 1 July heating degree days 1808 2055  
Cooling Degree Days 0 0  
Month to date cooling degree days 0 0  
Year to date cooling degree days 0 0  
Moisture  
Dew Point 10 °F    
Average Humidity 66    
Maximum Humidity 92    
Minimum Humidity 39    
Precipitation  
Precipitation 0.00 in 0.03 in 0.17 in (1998)
Month to date precipitation 1.70 0.79  
Year to date precipitation 13.89 10.82  
Sea Level Pressure  
Sea Level Pressure 30.13 in    
Wind  
Wind Speed 7 mph (NE)    
Max Wind Speed 16 mph    
Max Gust Speed 21 mph    
Visibility 10 miles    
Events      
T = Trace of Precipitation, MM = Missing Value Source: NWS Daily Summary

Daily Weather History Graph

Daily Weather History Graph

Search for Another Location

Airport:

Trip Planner

Search our weather history database for the weather conditions in past years. The results will help you decide how hot, cold, wet, or windy it might be!

Date:

Astronomy

Oct. 27, 2011 Rise Set
Actual Time 7:27 AM MDT 6:10 PM MDT
Civil Twilight 6:59 AM MDT 6:37 PM MDT
Nautical Twilight 6:28 AM MDT 7:09 PM MDT
Astronomical Twilight 5:57 AM MDT 7:40 PM MDT
Moon 8:33 AM MDT (10/27) 6:42 PM MDT (10/27)
Length of Visible Light 11h 38m
Length of Day
10h 43m
New Moon, 1% of the Moon is Illuminated
Oct 27
New Moon
Nov 2
First Quarter
Nov 10
Full
Nov 18
Last Quarter
Nov 24
New

Hourly Weather History & Observations

Time (MDT) Temp. Windchill Dew Point Humidity Pressure Visibility Wind Dir Wind Speed Gust Speed Precip Events Conditions
12:53 AM 15.1 °F 2.5 °F 10.9 °F 84% 30.10 in 10.0 mi ENE 10.4 mph - N/A   Clear
1:53 AM 12.9 °F 1.6 °F 9.0 °F 84% 30.11 in 10.0 mi ENE 8.1 mph - N/A   Clear
2:53 AM 10.0 °F 0.4 °F 6.1 °F 84% 30.12 in 10.0 mi NE 5.8 mph - N/A   Clear
3:53 AM 10.9 °F -2.6 °F 6.1 °F 81% 30.14 in 10.0 mi East 10.4 mph - N/A   Clear
4:53 AM 10.9 °F -0.8 °F 8.1 °F 88% 30.13 in 10.0 mi ENE 8.1 mph - N/A   Clear
5:53 AM 10.0 °F -3.7 °F 6.1 °F 84% 30.15 in 10.0 mi ENE 10.4 mph - N/A   Clear
6:53 AM 9.0 °F -2.2 °F 5.0 °F 84% 30.14 in 10.0 mi East 6.9 mph - N/A   Clear
7:53 AM 6.1 °F - 1.9 °F 83% 30.19 in 10.0 mi Calm Calm - N/A   Clear
8:53 AM 10.9 °F 1.4 °F 3.9 °F 73% 30.17 in 10.0 mi NE 5.8 mph - N/A   Clear
9:53 AM 19.0 °F 13.9 °F 10.0 °F 68% 30.13 in 10.0 mi ENE 3.5 mph - N/A   Clear
10:53 AM 25.0 °F 18.1 °F 14.0 °F 63% 30.09 in 10.0 mi NE 5.8 mph - N/A   Clear
11:53 AM 30.0 °F 26.5 °F 10.9 °F 45% 30.05 in 10.0 mi North 3.5 mph - N/A   Clear
12:53 PM 30.9 °F 24.3 °F 8.1 °F 38% 30.04 in 10.0 mi North 6.9 mph - N/A   Clear
1:53 PM 33.1 °F 28.7 °F 12.9 °F 43% 30.02 in 10.0 mi North 4.6 mph - N/A   Clear
2:53 PM 32.0 °F 24.8 °F 14.0 °F 48% 30.05 in 10.0 mi NNW 8.1 mph - N/A   Mostly Cloudy
3:53 PM 30.0 °F 20.5 °F 12.9 °F 49% 30.06 in 10.0 mi North 11.5 mph - N/A   Scattered Clouds
4:53 PM 28.0 °F 16.5 °F 14.0 °F 56% 30.09 in 10.0 mi NNE 15.0 mph - N/A   Overcast
5:53 PM 26.1 °F 15.6 °F 12.0 °F 55% 30.15 in 10.0 mi North 11.5 mph - N/A   Overcast
6:53 PM 23.0 °F 15.8 °F 15.1 °F 72% 30.20 in 10.0 mi North 5.8 mph - N/A   Scattered Clouds
7:53 PM 23.0 °F 13.9 °F 12.9 °F 65% 30.22 in 10.0 mi NNE 8.1 mph - N/A   Clear
8:53 PM 19.0 °F 8.2 °F 14.0 °F 81% 30.24 in 10.0 mi NE 9.2 mph - N/A   Clear
9:53 PM 16.0 °F 8.8 °F 12.0 °F 84% 30.21 in 10.0 mi ENE 4.6 mph - N/A   Clear
10:53 PM 10.9 °F 0.2 °F 9.0 °F 92% 30.22 in 10.0 mi ENE 6.9 mph - N/A   Clear
11:53 PM 10.9 °F 2.9 °F 7.0 °F 84% 30.19 in 10.0 mi ENE 4.6 mph - N/A   Clear